AirNav   Bose ProFlight Series 2 Headset
 
 971 users online  

2K1 Pond Creek Municipal Airport
Pond Creek, Oklahoma, USA

GOING TO POND CREEK?


FAA INFORMATION EFFECTIVE 30 JANUARY 2020

Location

FAA Identifier: 2K1
Lat/Long: 36-39-45.1090N 097-48-31.1980W
36-39.751817N 097-48.519967W
36.6625303,-97.8086661
(estimated)
Elevation: 1061 ft. / 323 m (estimated)
Variation: 07E (1985)
Time zone: UTC -6 (UTC -5 during Daylight Saving Time)
Zip code: 73766

Airport Operations

Airport use: Open to the public
Activation date: 05/1947
Control tower: no
ARTCC: KANSAS CITY CENTER
FSS: MC ALESTER FLIGHT SERVICE STATION
NOTAMs facility: MLC (NOTAM-D service available)
Attendance: UNATNDD
Wind indicator: no
Segmented circle: no

Airport Communications

CTAF: 122.9
WX AWOS-3 at WDG (17 nm S): 120.625 (580-237-1475)

Nearby radio navigation aids

VOR radial/distance  VOR name  Freq  Var
ODGr349/17.4WOODRING VOR/DME109.0008E
ENDr011/19.8VANCE VORTAC115.4005E
PERr255/31.6PIONEER VORTAC113.2006E
ANYr143/34.5ANTHONY VORTAC112.9007E

Airport Services

Airframe service: NONE
Powerplant service: NONE
Bottled oxygen: NONE
Bulk oxygen: NONE

Runway Information

Runway 15/33

Dimensions: 1220 x 30 ft. / 372 x 9 m
Surface: asphalt, in fair condition
RUNWAY 15  RUNWAY 33
Latitude: 36-39.936500N36-39.751425N
Longitude: 097-48.625000W097-48.527488W
Elevation: 1061.0 ft.1061.0 ft.
Traffic pattern: leftleft
Runway heading: 150 magnetic, 157 true330 magnetic, 337 true
Obstructions: 25 ft. trees, 222 ft. from runway, 95 ft. right of centerline
+15' ROAD 60' FM THRLD END.
none

Runway 17/35

Dimensions: 2320 x 430 ft. / 707 x 131 m
FULL WIDTH OF RY NOT MAINTAINED; USE MIDDLE OF RY SFC.
Surface: turf, in good condition
RUNWAY 17  RUNWAY 35
Latitude: 36-39.924000N36-39.541667N
Longitude: 097-48.520000W097-48.520000W
Elevation: 1061.0 ft.1061.0 ft.
Traffic pattern: leftleft
Runway heading: 173 magnetic, 180 true353 magnetic, 000 true
Obstructions: 35 ft. pole, 100 ft. from runway, 2:1 slope to clearnone

Airport Ownership and Management from official FAA records

Ownership: Publicly-owned
Owner: CITY OF POND CREEK
CITY HALL, PO BOX 6
POND CREEK, OK 73766
Phone 580-532-4915
Manager: ART CURL
CITY HALL, PO BOX 6
POND CREEK, OK 73766
Phone 580-532-4915
OR CONTACT POLICE DEPARTMENT 580-532-5050.

Airport Operational Statistics

Aircraft based on the field: 5
Single engine airplanes: 5
    
Aircraft operations: avg 20/week *
95% local general aviation
5% transient general aviation
* for 12-month period ending 19 September 2018

Additional Remarks

RWY 15/33 PVT MAINTAINED.
FOR CD CTC VANCE APCH AT 580-213-6765. WHEN VANCE APCH IS CLSD, CTC KANSAS CITY ARTCC AT 913-254-8508.

Instrument Procedures

There are no published instrument procedures at 2K1.

Some nearby airports with instrument procedures:

O53 - Medford Municipal Airport (8 nm N)
KWDG - Enid Woodring Regional Airport (17 nm S)
KEND - Vance Air Force Base (20 nm S)
KBKN - Blackwell-Tonkawa Municipal Airport (23 nm E)
F22 - Perry Municipal Airport (31 nm SE)
 
Loc | Ops | Rwys | IFR | FBO | Links
Com | Nav | Svcs | Stats | Notes
Area around 2K1 (Pond Creek Municipal Airport)
 
Road maps at: MapQuest Bing Google
 
Aerial photo
No photo
 
Sectional chart

 
Airport distance calculator
Flying to Pond Creek Municipal Airport? Find the distance to fly.

From to 2K1

Sunrise and sunset
Times for 23-Feb-2020
 Local
(UTC-6)
 Zulu
(UTC)
Morning civil twilight06:4512:45
Sunrise07:1113:11
Sunset18:1900:19
Evening civil twilight18:4500:45

Current date and time
Zulu (UTC)  23-Feb-2020 20:49:56
Local (UTC-6)  23-Feb-2020 14:49:56
 
METAR
KWDG 
18nm S 
231945Z 16014KT 5SM OVC011 10/08 A2988
KEND 
21nm S 
232026Z AUTO 15013KT 10SM OVC010 10/10 A2984 RMK AO2 SLP107 $
KBKN 
23nm E 
232035Z AUTO 13012KT 9SM BKN014 BKN047 11/11 A2990 RMK AO2
KPNC 
34nm E 
231953Z AUTO 14010KT 10SM -RA BKN055 BKN070 OVC100 10/07 A2990 RMK AO2 RAB34 SLP122 P0001 T01000067
TAF
KEND 
21nm S 
231930Z 2319/2501 15012G18KT 9999 OVC007 QNH2989INS TEMPO 2319/2323 8000 -SHRA BECMG 2323/2400 15009KT 4800 -SHRA OVC004 510026 QNH2967INS TEMPO 2401/2406 VRB15G25KT 4800 -TSRA OVC003CB BECMG 2411/2412 27015KT 8000 BR OVC008 510013 QNH2953INS BECMG 2417/2418 33015G25KT 9999 NSW OVC015 510023 QNH2972INS BECMG 2420/2421 34020G30KT 9999 SCT025 510033 QNH2974INS TX11/2319Z TN05/2414Z
NOTAMs
Click for the latest NOTAMs
NOTAMs are issued by the DoD/FAA and will open in a separate window not controlled by AirNav.

 

 
 

Would you like to see your business listed on this page?

 If your business provides an interesting product or service to pilots, flight crews, aircraft, or users of the Pond Creek Municipal Airport, you should consider listing it here.  To start the listing process, click on the button below
 
Add a business
 

Other Pages about Pond Creek Municipal Airport

Update a link
 
Copyright © AirNav, LLC. All rights reserved. Privacy Policy  Contact